Location: Brasén
(10.3422°N, 67.4210°W)
Time: 19:44:54
(UTC+00:00)

Daily predictions for brighter satellites

Satellite Brightness Start Highest point End
(mag) Time Altitude Azimuth Time Altitude Azimuth Time Altitude Azimuth
NATO 3D Rocket 4.3 22:19:08 10° W 22:24:52 67° NNW 22:33:06 10° ENE
SAR-Lupe-4 3.5 22:23:04 10° SSE 22:26:38 89° ENE 22:30:12 10° NNW
Cosmos 1455 Rocket 4.2 22:23:29 10° SE 22:26:52 23° E 22:30:14 10° NE
COSMO-SKYMED 1 2.4 22:23:02 10° NNE 22:27:07 67° ESE 22:31:12 10° S
Centaur D-1AR AC-39 3.3 22:24:37 10° SSW 22:27:39 21° SSE 22:30:40 10° ESE
Cosmos 2058 3.5 22:26:56 10° NNE 22:30:31 33° E 22:34:06 10° SSE
CZ-2D R/B 2.7 22:27:26 10° S 22:30:35 90° SSE 22:33:44 10° N
AQUARIUS 4.2 22:26:41 10° SSE 22:30:59 55° ENE 22:35:16 10° N
Cosmos 1602 3.8 22:28:57 10° NNE 22:31:42 31° E 22:34:28 10° SSE
MOS 1 Rocket 3.4 22:28:35 10° SSE 22:32:33 40° ENE 22:36:32 10° N
Meteor 2-12 Rocket 4.4 22:26:41 10° N 22:32:44 84° E 22:38:47 10° S
CAT/Thesee 2.6 22:30:17 10° W 22:32:54 71° S 22:34:50 10° E
Cosmos 1850 Rocket 4.2 22:32:38 10° S 22:37:44 52° ESE 22:42:46 10° NNE
GPS 2-17 Rocket1 3.6 22:33:56 10° SW 22:38:16 46° SSE 22:42:21 12° E
ARIANE 5 R/B 2.7 22:35:46 10° S 22:40:44 76° WSW 22:45:42 10° NNW
Meteor 2-1 Rocket 4.3 22:41:52 10° S 22:47:40 87° E 22:53:34 10° N
Cosmos 2369 Rocket 2.1 22:42:10 10° S 22:47:44 78° ESE 22:53:18 10° NNE
Okean 1 Rocket 3.6 22:43:28 10° SSW 22:47:51 62° W 22:52:12 10° N
Cosmos 1862 3.5 22:45:56 10° NNE 22:49:20 39° E 22:52:46 10° SSE
Cosmos 2297 3.7 22:43:53 10° S 22:49:36 78° ESE 22:55:18 10° NNE
Ariane 3 Deb 4.4 22:50:16 10° SW 22:52:51 20° SSE 22:56:46 10° ESE
Cosmos 1634 Rocket 4.3 22:47:14 10° SSE 22:53:14 46° E 22:59:11 10° NNE
Cosmos 2082 Rocket 3.0 22:50:27 10° NNE 22:55:04 26° ENE 22:59:41 10° SE
Ariane H10+ 3.5 22:49:51 10° W 22:56:18 42° SSW 22:58:40 13° ESE
Cosmos 468 Rocket 4.3 22:53:57 10° N 22:58:43 39° ENE 23:03:26 10° SE
Cosmos 2228 3.9 22:55:36 10° SSE 22:58:57 24° E 22:59:52 23° ENE
ATLAS 5 CENTAUR R/B 2.6 22:57:43 10° NNW 23:03:29 77° WSW 23:10:17 10° SSE
YAOGAN 1 2.8 23:00:49 10° SSE 23:04:51 43° ENE 23:08:52 10° N
Cosmos 1315 Rocket 3.5 23:03:57 10° SSE 23:07:10 28° E 23:07:10 28° E
USA 215 4.3 23:06:07 21° ENE 23:07:30 22° NE 23:12:19 10° N
Iridium 51 3.2 23:08:21 10° S 23:11:12 82° E 23:12:31 28° N
Cosmos 292 Rocket 4.0 23:08:11 10° S 23:12:42 44° ESE 23:14:36 29° NE
SPOT 1/Viking Rocket 3.5 23:11:50 10° S 23:16:59 86° WSW 23:22:08 10° NNW
SL-19 R/B 4.1 23:11:56 10° SSE 23:17:10 55° ENE 23:22:14 10° N
Resurs 1-3 3.4 23:15:33 10° SSE 23:19:49 68° ENE 23:24:04 10° N
Ariane H10-3 2.6 23:17:27 10° WSW 23:19:51 50° S 23:21:13 31° ESE
Yuri Rocket 3.2 23:16:14 10° WSW 23:21:41 75° SSE 23:23:06 43° ENE
Cosmos 1356 Rocket 3.2 23:20:41 10° S 23:24:26 55° E 23:24:26 55° E
Tiangong 0.8 23:22:32 10° W 23:24:44 17° SW 23:26:56 10° S
GPS 2-15 Rocket1 4.4 23:22:49 10° NW 23:26:42 25° N 23:27:10 24° N
Spot 4 Rocket 4.0 23:22:03 10° SSE 23:27:09 86° W 23:32:14 10° NNW
RESURS DK-1 3.2 23:27:30 10° NNW 23:31:19 48° WSW 23:35:08 10° S
SWIFT 4.0 23:31:17 10° SSW 23:33:05 17° S 23:33:05 17° S
Cosmos 2279 Rocket 3.8 23:32:06 10° S 23:38:17 82° E 23:43:07 17° N
Delta 2 Rocket 4.0 23:36:34 10° WNW 23:40:24 46° SW 23:41:15 39° S
Cosmos 1092 Rocket 3.8 23:35:43 10° N 23:41:48 64° E 23:47:51 10° SSE
Ariane H10+ 3.9 23:34:02 10° WSW 23:42:10 24° SSW 23:43:54 19° SSE
Cosmos 2026 Rocket 3.8 23:40:16 10° N 23:46:25 85° E 23:52:41 10° S
